When you browse on this site, cookies collect data to enhance your experience and personalize the content and advertising you see.
Visit our Privacy Policy to learn more. By continuing to use the site, you agree to this use of cookies and data.
  • In United Kingdom
  • List of Countries
  • For 7 days
  • Water Temperature
  • Satellite Maps
  • Weather Map
  • Weather Widgets
  • user-avatar
    Login

    Hourly Weather Trinidad de Zaachila

    Today, 26 June, Wednesday

    Time Temperature Precipitation Wind Pressure Humidity
    00:00 +19°C° 0.8 mm 0 mps 637 mmHg 90%
    01:00 +18°C° 0.1 mm 0 mps 637 mmHg 90%
    02:00 +18°C° 0.1 mm 0 mps 636 mmHg 91%
    03:00 +17°C° 0.1 mm 0 mps 636 mmHg 91%
    04:00 +17°C° 0 mm 0 mps 636 mmHg 91%
    05:00 +17°C° 0 mm 0 mps 636 mmHg 90%
    06:00 +20°C° 0 mm 1 mps 636 mmHg 90%
    07:00 +21°C° 0 mm 1 mps 637 mmHg 83%
    08:00 +23°C° 0 mm 1 mps 637 mmHg 77%
    09:00 +24°C° 0 mm 1 mps 638 mmHg 71%
    10:00 +25°C° 0.2 mm 1 mps 639 mmHg 66%
    11:00 +27°C° 0.2 mm 1 mps 639 mmHg 61%
    12:00 +28°C° 0.2 mm 1 mps 639 mmHg 57%
    13:00 +27°C° 1.2 mm 1 mps 638 mmHg 59%
    14:00 +27°C° 1.2 mm 1 mps 638 mmHg 62%
    15:00 +26°C° 1.2 mm 1 mps 637 mmHg 64%
    16:00 +26°C° 0.6 mm 1 mps 637 mmHg 68%
    17:00 +25°C° 0.6 mm 1 mps 637 mmHg 72%
    18:00 +24°C° 0.6 mm 1 mps 637 mmHg 76%
    19:00 +23°C° 0 mm 1 mps 637 mmHg 79%
    20:00 +22°C° 0 mm 1 mps 637 mmHg 83%
    21:00 +19°C° 0 mm 2 mps 637 mmHg 86%
    22:00 +19°C° 0 mm 2 mps 637 mmHg 88%
    23:00 +18°C° 0 mm 2 mps 637 mmHg 89%

    Tomorrow, 27 June, Thursday

    Time Temperature Precipitation Wind Pressure Humidity
    00:00 +18°C° 0 mm 2 mps 637 mmHg 91%
    01:00 +17°C° 0 mm 2 mps 636 mmHg 91%
    02:00 +17°C° 0 mm 2 mps 636 mmHg 90%
    03:00 +16°C° 0 mm 2 mps 636 mmHg 90%
    04:00 +16°C° 0 mm 2 mps 636 mmHg 89%
    05:00 +16°C° 0 mm 2 mps 636 mmHg 88%
    06:00 +16°C° 0 mm 2 mps 636 mmHg 87%
    07:00 +18°C° 0 mm 2 mps 636 mmHg 80%
    08:00 +20°C° 0 mm 2 mps 637 mmHg 73%
    09:00 +23°C° 0 mm 2 mps 638 mmHg 65%
    10:00 +24°C° 0 mm 2 mps 638 mmHg 60%
    11:00 +26°C° 0 mm 2 mps 639 mmHg 55%
    12:00 +27°C° 0 mm 2 mps 639 mmHg 50%
    13:00 +27°C° 0.1 mm 2 mps 639 mmHg 49%
    14:00 +28°C° 0.1 mm 3 mps 638 mmHg 48%
    15:00 +28°C° 0.1 mm 3 mps 638 mmHg 47%
    16:00 +27°C° 0.1 mm 3 mps 637 mmHg 52%
    17:00 +26°C° 0.1 mm 3 mps 637 mmHg 56%
    18:00 +25°C° 0.1 mm 2 mps 637 mmHg 60%
    19:00 +23°C° 0 mm 2 mps 637 mmHg 67%
    20:00 +20°C° 0 mm 2 mps 637 mmHg 73%
    21:00 +18°C° 0 mm 2 mps 637 mmHg 80%
    22:00 +18°C° 0 mm 2 mps 637 mmHg 82%
    23:00 +18°C° 0 mm 2 mps 637 mmHg 84%

    Day after tomorrow, 28 June, Friday

    Time Temperature Precipitation Wind Pressure Humidity
    00:00 +17°C° 0 mm 2 mps 637 mmHg 86%
    01:00 +17°C° 0 mm 2 mps 636 mmHg 87%
    02:00 +16°C° 0 mm 2 mps 636 mmHg 88%
    03:00 +16°C° 0 mm 2 mps 636 mmHg 89%
    04:00 +16°C° 0 mm 2 mps 636 mmHg 89%
    05:00 +15°C° 0 mm 2 mps 635 mmHg 89%
    06:00 +15°C° 0 mm 2 mps 635 mmHg 89%
    07:00 +17°C° 0 mm 2 mps 636 mmHg 79%
    08:00 +19°C° 0 mm 2 mps 637 mmHg 70%
    09:00 +21°C° 0 mm 2 mps 638 mmHg 60%
    10:00 +24°C° 0 mm 2 mps 638 mmHg 55%
    11:00 +26°C° 0 mm 2 mps 639 mmHg 50%
    12:00 +27°C° 0 mm 2 mps 639 mmHg 45%
    13:00 +27°C° 0.1 mm 2 mps 639 mmHg 46%
    14:00 +27°C° 0.1 mm 3 mps 638 mmHg 46%
    15:00 +27°C° 0.1 mm 3 mps 637 mmHg 47%
    16:00 +26°C° 0.3 mm 3 mps 637 mmHg 53%
    17:00 +25°C° 0.3 mm 3 mps 637 mmHg 59%
    18:00 +24°C° 0.3 mm 3 mps 637 mmHg 65%
    19:00 +21°C° 0 mm 3 mps 637 mmHg 71%
    20:00 +20°C° 0 mm 2 mps 637 mmHg 77%
    21:00 +18°C° 0 mm 2 mps 637 mmHg 84%
    22:00 +18°C° 0 mm 2 mps 637 mmHg 85%
    23:00 +17°C° 0 mm 2 mps 637 mmHg 86%

    29 June, Saturday

    Time Temperature Precipitation Wind Pressure Humidity
    00:00 +17°C° 0 mm 2 mps 637 mmHg 87%
    01:00 +17°C° 0 mm 2 mps 636 mmHg 87%
    02:00 +16°C° 0 mm 2 mps 636 mmHg 87%
    03:00 +16°C° 0 mm 2 mps 636 mmHg 88%
    04:00 +16°C° 0 mm 2 mps 636 mmHg 87%
    05:00 +15°C° 0 mm 2 mps 636 mmHg 87%
    06:00 +15°C° 0 mm 2 mps 636 mmHg 87%
    07:00 +17°C° 0 mm 2 mps 636 mmHg 78%
    08:00 +19°C° 0 mm 2 mps 637 mmHg 70%
    09:00 +22°C° 0 mm 1 mps 638 mmHg 62%
    10:00 +23°C° 0 mm 2 mps 639 mmHg 57%
    11:00 +25°C° 0 mm 2 mps 639 mmHg 53%
    12:00 +27°C° 0 mm 2 mps 639 mmHg 48%
    13:00 +26°C° 0.3 mm 2 mps 638 mmHg 51%
    14:00 +26°C° 0.3 mm 2 mps 638 mmHg 54%
    15:00 +26°C° 0.3 mm 3 mps 637 mmHg 57%
    16:00 +25°C° 0.4 mm 2 mps 637 mmHg 61%
    17:00 +24°C° 0.4 mm 2 mps 637 mmHg 65%
    18:00 +23°C° 0.4 mm 2 mps 637 mmHg 70%
    19:00 +21°C° 0 mm 2 mps 637 mmHg 75%
    20:00 +19°C° 0 mm 2 mps 637 mmHg 80%
    21:00 +17°C° 0 mm 2 mps 637 mmHg 86%
    22:00 +17°C° 0 mm 2 mps 637 mmHg 86%
    23:00 +17°C° 0 mm 2 mps 637 mmHg 87%

    30 June, Sunday

    Time Temperature Precipitation Wind Pressure Humidity
    00:00 +16°C° 0 mm 1 mps 637 mmHg 88%
    01:00 +16°C° 0 mm 1 mps 636 mmHg 88%
    02:00 +16°C° 0 mm 1 mps 636 mmHg 89%
    03:00 +15°C° 0 mm 1 mps 635 mmHg 89%
    04:00 +15°C° 0 mm 1 mps 635 mmHg 89%
    05:00 +15°C° 0 mm 2 mps 635 mmHg 89%
    06:00 +15°C° 0 mm 2 mps 635 mmHg 90%
    07:00 +18°C° 0 mm 1 mps 636 mmHg 82%
    08:00 +20°C° 0 mm 1 mps 637 mmHg 75%
    09:00 +22°C° 0 mm 1 mps 638 mmHg 68%
    10:00 +23°C° 0 mm 1 mps 638 mmHg 63%
    11:00 +25°C° 0 mm 1 mps 638 mmHg 58%
    12:00 +26°C° 0 mm 1 mps 638 mmHg 53%
    13:00 +26°C° 0.7 mm 1 mps 638 mmHg 56%
    14:00 +26°C° 0.7 mm 2 mps 637 mmHg 58%
    15:00 +26°C° 0.7 mm 2 mps 637 mmHg 61%
    16:00 +25°C° 1.4 mm 2 mps 637 mmHg 66%
    17:00 +24°C° 1.4 mm 1 mps 636 mmHg 71%
    18:00 +23°C° 1.4 mm 1 mps 636 mmHg 76%
    19:00 +22°C° 0.6 mm 1 mps 636 mmHg 80%
    20:00 +21°C° 0.6 mm 1 mps 637 mmHg 84%
    21:00 +21°C° 0.6 mm 1 mps 637 mmHg 88%
    22:00 +20°C° 0.2 mm 1 mps 637 mmHg 89%
    23:00 +20°C° 0.2 mm 1 mps 637 mmHg 90%

    1 July, Monday

    Time Temperature Precipitation Wind Pressure Humidity
    00:00 +20°C° 0.2 mm 1 mps 637 mmHg 91%
    01:00 +20°C° 0 mm 1 mps 637 mmHg 91%
    02:00 +19°C° 0 mm 1 mps 636 mmHg 92%
    03:00 +19°C° 0 mm 1 mps 636 mmHg 92%
    04:00 +19°C° 0 mm 1 mps 636 mmHg 93%
    05:00 +18°C° 0 mm 1 mps 636 mmHg 93%
    06:00 +18°C° 0 mm 1 mps 636 mmHg 94%
    07:00 +19°C° 0 mm 1 mps 636 mmHg 87%
    08:00 +21°C° 0 mm 1 mps 637 mmHg 81%
    09:00 +23°C° 0 mm 1 mps 638 mmHg 75%
    10:00 +24°C° 0.2 mm 1 mps 638 mmHg 70%
    11:00 +25°C° 0.2 mm 1 mps 638 mmHg 65%
    12:00 +26°C° 0.2 mm 1 mps 638 mmHg 60%
    13:00 +26°C° 0.9 mm 1 mps 638 mmHg 61%
    14:00 +26°C° 0.9 mm 2 mps 637 mmHg 63%
    15:00 +26°C° 0.9 mm 2 mps 637 mmHg 64%
    16:00 +25°C° 1 mm 2 mps 637 mmHg 68%
    17:00 +24°C° 1 mm 1 mps 636 mmHg 72%
    18:00 +24°C° 1 mm 1 mps 636 mmHg 76%
    19:00 +23°C° 0.5 mm 1 mps 636 mmHg 79%
    20:00 +23°C° 0.5 mm 1 mps 637 mmHg 82%
    21:00 +20°C° 0.5 mm 0 mps 637 mmHg 84%
    22:00 +20°C° 0.2 mm 0 mps 637 mmHg 85%
    23:00 +19°C° 0.2 mm 0 mps 637 mmHg 86%
    Show more